NATO 3C

operational
NORAD ID: 11115 Int'l Des: 1978-106 Owner: NICS Country: I-NATO
HEOCIRCULAR

关于 NATO 3C

正在加载描述...

实时位置

正在加载3D地球...

即将过境

高度历史

Altitude vs Time

uPlot chart will show altitude changes over time

两行轨道根数

1 11115U 78106A 26063.62184971 -.00000064 00000-0 00000-0 0 9997
2 11115 9.3284 316.0079 0006604 342.1547 187.3255 0.98481262654180
Epoch: Mar 4, 2026 • Age: 18 hours

当前状态

高度 36314.3 km
速度 3.05 km/s
星下点 -5.09°S, 98.09°E
发射日期 Nov 19, 1978
运行时间 47.2 years
类型 other

技术详情

分类 Payload
质量 307.00 kg
干质量 279.00 kg
总质量 706.00 kg
长度 2.90 m
直径 2.20 m
跨度 2.90 m
形状 Cyl + Ant
制造商 FORDA
平台类型 NATO 3
阶段状态 In Orbit
所有者/国家 NICS/I-NATO

大型星座

Loading constellations...